RYR7RR EGSS-LEAM

Flight info

Callsign RYR7RR
Flight time 2h 29m
Altitude 36000
Route NUGBO M183 SILVA Q41 SAM N63 LELNA DCT NOVAN DCT NENEM P152 PPN N10 CJN L27 BLN N865 ESILA
Aircraft B738/M-SDE3FGILRWY/SB1

Departure

Time 2026-04-14 11:08
Airport London Stansted Airport (EGSS)

Arrival

Time 2026-04-14 13:37
Airport Almería Airport (LEAM)
Time Latitude Longitude Altitude Speed Heading
2026-04-14 10:28 51.89160 0.25493 350 ft 0 kts 54°
2026-04-14 11:00 51.89153 0.25478 358 ft 4 kts 54°
2026-04-14 11:00 51.89138 0.25444 352 ft 4 kts 47°
2026-04-14 11:00 51.89122 0.25432 358 ft 4 kts 333°
2026-04-14 11:00 51.89106 0.25453 348 ft 4 kts 313°
2026-04-14 11:01 51.89095 0.25472 358 ft 1 kts 313°
2026-04-14 11:05 51.89108 0.25448 348 ft 8 kts 313°
2026-04-14 11:05 51.89166 0.25343 348 ft 15 kts 301°
2026-04-14 11:06 51.89229 0.25198 348 ft 16 kts 324°
2026-04-14 11:06 51.89310 0.25235 352 ft 12 kts 45°
2026-04-14 11:06 51.89375 0.25233 348 ft 12 kts 298°
2026-04-14 11:06 51.89424 0.25135 350 ft 11 kts 313°
2026-04-14 11:07 51.89476 0.25048 353 ft 10 kts 312°
2026-04-14 11:07 51.89473 0.24942 349 ft 11 kts 233°
2026-04-14 11:07 51.89446 0.24899 348 ft 0 kts 222°
2026-04-14 11:07 51.89419 0.24859 347 ft 29 kts 222°
2026-04-14 11:08 51.89070 0.24341 353 ft 105 kts 224°
2026-04-14 11:08 51.88376 0.23288 425 ft 160 kts 220°
2026-04-14 11:08 51.87504 0.21998 1152 ft 177 kts 219°
2026-04-14 11:08 51.86519 0.20665 2035 ft 192 kts 220°
2026-04-14 11:09 51.85522 0.19182 2702 ft 200 kts 223°
2026-04-14 11:09 51.84459 0.17530 2951 ft 221 kts 223°
2026-04-14 11:09 51.83415 0.15678 3482 ft 227 kts 240°
2026-04-14 11:10 51.83965 0.10658 4319 ft 264 kts 317°
2026-04-14 11:10 51.85620 0.09377 5140 ft 268 kts 345°
2026-04-14 11:10 51.87477 0.08915 5905 ft 274 kts 353°
2026-04-14 11:10 51.89386 0.08598 6667 ft 277 kts 352°
2026-04-14 11:11 51.91313 0.08198 7390 ft 281 kts 351°
2026-04-14 11:11 51.93143 0.07173 8110 ft 280 kts 321°
2026-04-14 11:11 51.94353 0.04773 8894 ft 277 kts 291°
2026-04-14 11:11 51.94775 0.01747 9616 ft 276 kts 269°
2026-04-14 11:12 51.94617 -0.01346 10335 ft 277 kts 260°
2026-04-14 11:12 51.94318 -0.04542 10592 ft 298 kts 259°
2026-04-14 11:12 51.93967 -0.07969 10768 ft 318 kts 259°
2026-04-14 11:12 51.93599 -0.11566 11239 ft 328 kts 259°
2026-04-14 11:13 51.93231 -0.15237 11922 ft 331 kts 259°
2026-04-14 11:13 51.92866 -0.18933 12644 ft 334 kts 259°
2026-04-14 11:13 51.92502 -0.22670 13362 ft 337 kts 259°
2026-04-14 11:13 51.92137 -0.26446 14068 ft 341 kts 259°
2026-04-14 11:14 51.91769 -0.30260 14736 ft 344 kts 259°
2026-04-14 11:14 51.91397 -0.34104 15449 ft 347 kts 259°
2026-04-14 11:14 51.91022 -0.37978 16147 ft 350 kts 258°
2026-04-14 11:14 51.90643 -0.41886 16817 ft 353 kts 258°
2026-04-14 11:15 51.90259 -0.45831 17487 ft 357 kts 258°
2026-04-14 11:15 51.89875 -0.49765 18158 ft 360 kts 258°
2026-04-14 11:15 51.89475 -0.53841 18779 ft 363 kts 258°
2026-04-14 11:15 51.89077 -0.57888 19369 ft 365 kts 258°
2026-04-14 11:16 51.88681 -0.61902 19974 ft 367 kts 258°
2026-04-14 11:16 51.88276 -0.65993 20575 ft 369 kts 258°
2026-04-14 11:16 51.87867 -0.70106 21160 ft 372 kts 258°
2026-04-14 11:16 51.87454 -0.74251 21724 ft 374 kts 258°
2026-04-14 11:17 51.87037 -0.78413 22291 ft 376 kts 258°
2026-04-14 11:17 51.86617 -0.82602 22837 ft 379 kts 258°
2026-04-14 11:17 51.86330 -0.85452 23204 ft 381 kts 259°
2026-04-14 11:17 51.85901 -0.89687 23719 ft 383 kts 259°
2026-04-14 11:18 51.84846 -0.95102 24243 ft 384 kts 239°
2026-04-14 11:18 51.83165 -0.98461 24640 ft 388 kts 222°
2026-04-14 11:18 51.81705 -1.00247 24895 ft 392 kts 213°
2026-04-14 11:18 51.78307 -1.02351 25323 ft 404 kts 193°
2026-04-14 11:19 51.75519 -1.03095 25675 ft 408 kts 191°
2026-04-14 11:19 51.73617 -1.03534 25893 ft 411 kts 191°
2026-04-14 11:19 51.70770 -1.04183 26238 ft 415 kts 191°
2026-04-14 11:19 51.67898 -1.04875 26566 ft 419 kts 192°
2026-04-14 11:20 51.65011 -1.05609 26877 ft 423 kts 192°
2026-04-14 11:20 51.62095 -1.06368 27201 ft 426 kts 193°
2026-04-14 11:20 51.59204 -1.07419 27531 ft 427 kts 198°
2026-04-14 11:20 51.56330 -1.08679 27833 ft 430 kts 199°
2026-04-14 11:21 51.53438 -1.09965 28130 ft 434 kts 199°
2026-04-14 11:21 51.50509 -1.11237 28426 ft 437 kts 198°
2026-04-14 11:21 51.47562 -1.12495 28738 ft 440 kts 198°
2026-04-14 11:21 51.44591 -1.13767 29000 ft 443 kts 199°
2026-04-14 11:22 51.41604 -1.15056 29281 ft 447 kts 199°
2026-04-14 11:22 51.38587 -1.16358 29575 ft 450 kts 199°
2026-04-14 11:22 51.35559 -1.17662 29850 ft 453 kts 199°
2026-04-14 11:22 51.32510 -1.18964 30092 ft 456 kts 199°
2026-04-14 11:23 51.29436 -1.20271 30304 ft 459 kts 199°
2026-04-14 11:23 51.26341 -1.21584 30534 ft 461 kts 199°
2026-04-14 11:23 51.23239 -1.22900 30785 ft 462 kts 199°
2026-04-14 11:23 51.20130 -1.24217 31074 ft 462 kts 199°
2026-04-14 11:24 51.17019 -1.25528 31383 ft 462 kts 199°
2026-04-14 11:24 51.13911 -1.26829 31710 ft 462 kts 199°
2026-04-14 11:24 51.10795 -1.28130 32027 ft 462 kts 199°
2026-04-14 11:24 51.07682 -1.29428 32303 ft 463 kts 199°
2026-04-14 11:25 51.04568 -1.30726 32575 ft 463 kts 199°
2026-04-14 11:25 51.01447 -1.32027 32876 ft 463 kts 199°
2026-04-14 11:25 50.98333 -1.33322 33193 ft 463 kts 199°
2026-04-14 11:25 50.95251 -1.34743 33448 ft 459 kts 205°
2026-04-14 11:26 50.92355 -1.36796 33691 ft 455 kts 212°
2026-04-14 11:26 50.89548 -1.39093 33991 ft 454 kts 213°
2026-04-14 11:26 50.86758 -1.41407 34276 ft 453 kts 213°
2026-04-14 11:26 50.83964 -1.43701 34485 ft 453 kts 212°
2026-04-14 11:27 50.81155 -1.45970 34694 ft 453 kts 212°
2026-04-14 11:27 50.78337 -1.48221 34930 ft 453 kts 212°
2026-04-14 11:27 50.75530 -1.50450 35163 ft 452 kts 212°
2026-04-14 11:27 50.72754 -1.52652 35375 ft 452 kts 212°
2026-04-14 11:28 50.69949 -1.54872 35567 ft 452 kts 212°
2026-04-14 11:28 50.67096 -1.57127 35784 ft 452 kts 212°
2026-04-14 11:28 50.64329 -1.59309 36043 ft 450 kts 212°
2026-04-14 11:28 50.61490 -1.61546 36261 ft 450 kts 212°
2026-04-14 11:29 50.58727 -1.63722 36438 ft 450 kts 212°
2026-04-14 11:29 50.55928 -1.65924 36635 ft 450 kts 212°
2026-04-14 11:29 50.53092 -1.68152 36856 ft 449 kts 212°
2026-04-14 11:29 50.50338 -1.70312 37041 ft 448 kts 212°
2026-04-14 11:30 50.44727 -1.74709 37079 ft 452 kts 212°
2026-04-14 11:30 50.39112 -1.79092 37061 ft 449 kts 212°
2026-04-14 11:31 50.33529 -1.83437 37064 ft 447 kts 213°
2026-04-14 11:31 50.27974 -1.87753 37064 ft 445 kts 213°
2026-04-14 11:32 50.22439 -1.92042 37076 ft 444 kts 213°
2026-04-14 11:32 50.16908 -1.96318 37069 ft 444 kts 213°
2026-04-14 11:33 50.11364 -2.00594 37074 ft 445 kts 213°
2026-04-14 11:34 50.03003 -2.07020 37074 ft 448 kts 213°
2026-04-14 11:34 49.97344 -2.11190 37071 ft 456 kts 206°
2026-04-14 11:35 49.91244 -2.14148 37071 ft 461 kts 202°
2026-04-14 11:35 49.85060 -2.16924 37074 ft 463 kts 202°
2026-04-14 11:36 49.78862 -2.19739 37070 ft 465 kts 203°
2026-04-14 11:36 49.72662 -2.22597 37074 ft 465 kts 203°
2026-04-14 11:37 49.66456 -2.25472 37066 ft 466 kts 203°
2026-04-14 11:37 49.60250 -2.28341 37070 ft 465 kts 203°
2026-04-14 11:38 49.54094 -2.31178 37072 ft 464 kts 203°
2026-04-14 11:38 49.47907 -2.34020 37073 ft 464 kts 203°
2026-04-14 11:39 49.41728 -2.36851 37071 ft 463 kts 203°
2026-04-14 11:39 49.35563 -2.39670 37071 ft 462 kts 203°
2026-04-14 11:40 49.29399 -2.42480 37098 ft 462 kts 203°
2026-04-14 11:40 49.23235 -2.45283 37098 ft 462 kts 203°
2026-04-14 11:41 49.17073 -2.48078 37088 ft 462 kts 203°
2026-04-14 11:41 49.10908 -2.50867 37093 ft 462 kts 203°
2026-04-14 11:42 49.04731 -2.53653 36793 ft 463 kts 204°
2026-04-14 11:42 49.01646 -2.55041 36928 ft 462 kts 204°
2026-04-14 11:42 48.98562 -2.56429 37000 ft 464 kts 204°
2026-04-14 11:43 48.92337 -2.59229 37074 ft 470 kts 204°
2026-04-14 11:43 48.86028 -2.62058 37083 ft 475 kts 204°
2026-04-14 11:44 48.79665 -2.64898 37079 ft 479 kts 204°
2026-04-14 11:44 48.73304 -2.67722 37051 ft 472 kts 204°
2026-04-14 11:45 48.67048 -2.70490 37066 ft 467 kts 204°
2026-04-14 11:45 48.60809 -2.73257 37079 ft 467 kts 204°
2026-04-14 11:46 48.54574 -2.76016 37079 ft 467 kts 204°
2026-04-14 11:46 48.48335 -2.78768 37072 ft 468 kts 204°
2026-04-14 11:47 48.42128 -2.81498 37075 ft 468 kts 204°
2026-04-14 11:47 48.35866 -2.84243 37073 ft 469 kts 204°
2026-04-14 11:48 48.29590 -2.86988 37069 ft 470 kts 204°
2026-04-14 11:48 48.23295 -2.89734 37064 ft 471 kts 204°
2026-04-14 11:49 48.16996 -2.92475 37069 ft 472 kts 204°
2026-04-14 11:49 48.10677 -2.95217 37068 ft 473 kts 204°
2026-04-14 11:50 48.04358 -2.97952 37070 ft 473 kts 204°
2026-04-14 11:50 47.98033 -3.00682 37085 ft 473 kts 204°
2026-04-14 11:51 47.88534 -3.04770 37075 ft 474 kts 204°
2026-04-14 11:51 47.82200 -3.07487 37085 ft 474 kts 203°
2026-04-14 11:52 47.75863 -3.10199 37093 ft 474 kts 203°
2026-04-14 11:52 47.69529 -3.12902 37093 ft 474 kts 203°
2026-04-14 11:53 47.63194 -3.15600 37090 ft 474 kts 203°
2026-04-14 11:53 47.56858 -3.18291 37089 ft 473 kts 203°
2026-04-14 11:54 47.50528 -3.20972 37091 ft 473 kts 203°
2026-04-14 11:54 47.44195 -3.23648 37092 ft 473 kts 203°
2026-04-14 11:55 47.37865 -3.26316 37093 ft 473 kts 203°
2026-04-14 11:55 47.31541 -3.28975 37097 ft 473 kts 203°
2026-04-14 11:56 47.25210 -3.31631 37100 ft 473 kts 203°
2026-04-14 11:56 47.18882 -3.34278 37102 ft 473 kts 203°
2026-04-14 11:57 47.12589 -3.36905 37106 ft 473 kts 203°
2026-04-14 11:57 47.06245 -3.39546 37105 ft 474 kts 203°
2026-04-14 11:58 46.99900 -3.42181 37106 ft 474 kts 203°
2026-04-14 11:58 46.93548 -3.44813 37107 ft 475 kts 203°
2026-04-14 11:59 46.87193 -3.47438 37114 ft 475 kts 203°
2026-04-14 11:59 46.80834 -3.50060 37110 ft 475 kts 202°
2026-04-14 12:00 46.74474 -3.52675 37104 ft 475 kts 202°
2026-04-14 12:00 46.68108 -3.55286 37101 ft 475 kts 202°
2026-04-14 12:01 46.61741 -3.57892 37113 ft 475 kts 202°
2026-04-14 12:01 46.55374 -3.60491 37110 ft 475 kts 202°
2026-04-14 12:02 46.49006 -3.63084 37122 ft 475 kts 202°
2026-04-14 12:02 46.42630 -3.65676 37117 ft 476 kts 202°
2026-04-14 12:03 46.36258 -3.68250 37119 ft 476 kts 200°
2026-04-14 12:03 46.29581 -3.69236 37117 ft 490 kts 181°
2026-04-14 12:04 46.22843 -3.67784 37122 ft 495 kts 173°
2026-04-14 12:04 46.16074 -3.65949 37124 ft 495 kts 173°
2026-04-14 12:05 46.09294 -3.64166 37130 ft 495 kts 173°
2026-04-14 12:05 46.02515 -3.62455 37126 ft 495 kts 173°
2026-04-14 12:06 45.96837 -3.61046 37135 ft 494 kts 173°
2026-04-14 12:06 45.90054 -3.59368 37133 ft 494 kts 173°
2026-04-14 12:07 45.83322 -3.57704 37138 ft 494 kts 173°
2026-04-14 12:07 45.76547 -3.56031 37138 ft 494 kts 173°
2026-04-14 12:08 45.69770 -3.54361 37148 ft 494 kts 173°
2026-04-14 12:08 45.62987 -3.52694 37133 ft 495 kts 173°
2026-04-14 12:09 45.56195 -3.51028 37150 ft 495 kts 173°
2026-04-14 12:09 45.49404 -3.49367 37141 ft 495 kts 173°
2026-04-14 12:10 45.42614 -3.47711 37152 ft 495 kts 173°
2026-04-14 12:10 45.35823 -3.46058 37152 ft 495 kts 173°
2026-04-14 12:11 45.29028 -3.44408 37155 ft 495 kts 173°
2026-04-14 12:11 45.22237 -3.42763 37159 ft 495 kts 173°
2026-04-14 12:12 45.15448 -3.41123 37163 ft 495 kts 173°
2026-04-14 12:12 45.08657 -3.39486 37164 ft 495 kts 173°
2026-04-14 12:13 45.01860 -3.37852 37168 ft 495 kts 173°
2026-04-14 12:13 44.95064 -3.36222 37171 ft 495 kts 173°
2026-04-14 12:14 44.88267 -3.34595 37178 ft 496 kts 172°
2026-04-14 12:14 44.81469 -3.32972 37180 ft 496 kts 172°
2026-04-14 12:15 44.74662 -3.31351 37182 ft 496 kts 172°
2026-04-14 12:15 44.67852 -3.29733 37189 ft 497 kts 172°
2026-04-14 12:16 44.61082 -3.28129 37180 ft 497 kts 172°
2026-04-14 12:16 44.54253 -3.26513 37188 ft 498 kts 172°
2026-04-14 12:17 44.47373 -3.24891 37192 ft 498 kts 172°
2026-04-14 12:17 44.40578 -3.23291 37192 ft 499 kts 172°
2026-04-14 12:18 44.33734 -3.21684 37195 ft 499 kts 172°
2026-04-14 12:18 44.26879 -3.20078 37198 ft 499 kts 172°
2026-04-14 12:19 44.20027 -3.18476 37196 ft 500 kts 172°
2026-04-14 12:19 44.13166 -3.16876 37203 ft 500 kts 172°
2026-04-14 12:20 44.06412 -3.14613 37201 ft 500 kts 157°
2026-04-14 12:20 44.00368 -3.09929 37197 ft 496 kts 138°
2026-04-14 12:21 43.95053 -3.03849 37204 ft 495 kts 137°
2026-04-14 12:21 43.89748 -2.97755 37208 ft 496 kts 137°
2026-04-14 12:22 43.84379 -2.91718 37207 ft 497 kts 137°
2026-04-14 12:22 43.78995 -2.85714 37213 ft 497 kts 137°
2026-04-14 12:23 43.73603 -2.79706 37203 ft 498 kts 137°
2026-04-14 12:23 43.68257 -2.73627 37208 ft 497 kts 136°
2026-04-14 12:24 43.62897 -2.67577 37206 ft 498 kts 137°
2026-04-14 12:24 43.57484 -2.61618 37208 ft 498 kts 138°
2026-04-14 12:25 43.52062 -2.55665 37209 ft 498 kts 137°
2026-04-14 12:25 43.46649 -2.49712 37208 ft 498 kts 137°
2026-04-14 12:26 43.41239 -2.43768 37215 ft 498 kts 137°
2026-04-14 12:26 43.35823 -2.37832 37211 ft 498 kts 137°
2026-04-14 12:27 43.30415 -2.31919 37215 ft 497 kts 137°
2026-04-14 12:27 43.24991 -2.26003 37218 ft 498 kts 137°
2026-04-14 12:28 43.19605 -2.20140 37214 ft 498 kts 137°
2026-04-14 12:28 43.14176 -2.14244 37226 ft 498 kts 137°
2026-04-14 12:29 43.08745 -2.08360 37205 ft 498 kts 137°
2026-04-14 12:29 43.03324 -2.02487 37223 ft 497 kts 137°
2026-04-14 12:30 42.97897 -1.96615 37199 ft 498 kts 136°
2026-04-14 12:30 42.92462 -1.90746 37191 ft 498 kts 137°
2026-04-14 12:31 42.87029 -1.84889 37180 ft 498 kts 136°
2026-04-14 12:31 42.81595 -1.79020 37189 ft 499 kts 136°
2026-04-14 12:32 42.75687 -1.74065 37188 ft 508 kts 162°
2026-04-14 12:32 42.72207 -1.73279 37180 ft 508 kts 180°
2026-04-14 12:32 42.68708 -1.73688 37183 ft 503 kts 197°
2026-04-14 12:33 42.65456 -1.75270 37199 ft 492 kts 211°
2026-04-14 12:33 42.62394 -1.77350 37196 ft 492 kts 213°
2026-04-14 12:33 42.56313 -1.81627 37174 ft 493 kts 212°
2026-04-14 12:34 42.50167 -1.85802 37159 ft 495 kts 212°
2026-04-14 12:34 42.43974 -1.89919 37166 ft 497 kts 211°
2026-04-14 12:35 42.37768 -1.94052 37181 ft 498 kts 212°
2026-04-14 12:35 42.31554 -1.98195 37182 ft 498 kts 212°
2026-04-14 12:36 42.25330 -2.02342 37187 ft 499 kts 211°
2026-04-14 12:36 42.19139 -2.06448 37182 ft 499 kts 211°
2026-04-14 12:37 42.12905 -2.10572 37189 ft 499 kts 212°
2026-04-14 12:37 42.06668 -2.14686 37183 ft 499 kts 211°
2026-04-14 12:38 41.97337 -2.20827 37171 ft 497 kts 212°
2026-04-14 12:39 41.91129 -2.24904 37178 ft 496 kts 211°
2026-04-14 12:39 41.84932 -2.28965 37172 ft 495 kts 211°
2026-04-14 12:40 41.78743 -2.33011 37167 ft 495 kts 211°
2026-04-14 12:40 41.72556 -2.37047 37161 ft 494 kts 211°
2026-04-14 12:41 41.66374 -2.41072 37166 ft 494 kts 211°
2026-04-14 12:41 41.60195 -2.45087 37162 ft 494 kts 211°
2026-04-14 12:42 41.54013 -2.49096 37170 ft 494 kts 211°
2026-04-14 12:42 41.47820 -2.53099 37167 ft 495 kts 211°
2026-04-14 12:43 41.41620 -2.57084 37180 ft 495 kts 211°
2026-04-14 12:43 41.35389 -2.60887 37162 ft 501 kts 203°
2026-04-14 12:44 41.28522 -2.62667 37178 ft 508 kts 184°
2026-04-14 12:44 41.21455 -2.62186 37190 ft 509 kts 175°
2026-04-14 12:45 41.10852 -2.61045 37180 ft 510 kts 176°
2026-04-14 12:45 41.03780 -2.60412 37184 ft 509 kts 176°
2026-04-14 12:46 40.96711 -2.59787 37195 ft 509 kts 176°
2026-04-14 12:46 40.89646 -2.59155 37185 ft 509 kts 176°
2026-04-14 12:47 40.82585 -2.58523 37196 ft 508 kts 176°
2026-04-14 12:47 40.75524 -2.57894 37196 ft 508 kts 176°
2026-04-14 12:48 40.68470 -2.57265 37191 ft 508 kts 176°
2026-04-14 12:48 40.61412 -2.56639 37192 ft 509 kts 176°
2026-04-14 12:49 40.54348 -2.56014 37189 ft 508 kts 176°
2026-04-14 12:49 40.47288 -2.55390 37190 ft 508 kts 176°
2026-04-14 12:50 40.36715 -2.55302 37189 ft 506 kts 192°
2026-04-14 12:51 40.30037 -2.57891 37197 ft 498 kts 206°
2026-04-14 12:51 40.23589 -2.61245 37185 ft 499 kts 206°
2026-04-14 12:52 40.17114 -2.64574 37188 ft 500 kts 206°
2026-04-14 12:52 40.10610 -2.67842 37183 ft 501 kts 205°
2026-04-14 12:53 40.05191 -2.70541 37185 ft 502 kts 205°
2026-04-14 12:53 39.98664 -2.73786 37195 ft 502 kts 205°
2026-04-14 12:54 39.92132 -2.77031 37186 ft 503 kts 205°
2026-04-14 12:54 39.85587 -2.80278 37191 ft 503 kts 205°
2026-04-14 12:55 39.79046 -2.83515 37196 ft 503 kts 205°
2026-04-14 12:55 39.72498 -2.86750 37184 ft 504 kts 205°
2026-04-14 12:56 39.65947 -2.89980 37201 ft 503 kts 205°
2026-04-14 12:56 39.59402 -2.93201 37189 ft 503 kts 205°
2026-04-14 12:57 39.52868 -2.96418 37187 ft 502 kts 205°
2026-04-14 12:57 39.46341 -2.99634 37192 ft 501 kts 205°
2026-04-14 12:58 39.39822 -3.02837 37195 ft 501 kts 205°
2026-04-14 12:58 39.33303 -3.06011 37198 ft 500 kts 205°
2026-04-14 12:59 39.26785 -3.09168 37200 ft 500 kts 205°
2026-04-14 12:59 39.20278 -3.12316 37198 ft 499 kts 205°
2026-04-14 13:00 39.13777 -3.15458 37195 ft 499 kts 205°
2026-04-14 13:00 39.07278 -3.18595 37199 ft 499 kts 205°
2026-04-14 13:01 39.00778 -3.21725 37192 ft 499 kts 205°
2026-04-14 13:01 38.94267 -3.24860 37198 ft 500 kts 205°
2026-04-14 13:02 38.87757 -3.27996 37191 ft 499 kts 205°
2026-04-14 13:02 38.81262 -3.31119 37181 ft 498 kts 205°
2026-04-14 13:03 38.74786 -3.34227 37187 ft 497 kts 205°
2026-04-14 13:03 38.68316 -3.37327 37196 ft 496 kts 205°
2026-04-14 13:04 38.61902 -3.40393 37194 ft 495 kts 205°
2026-04-14 13:04 38.55402 -3.43494 37200 ft 495 kts 205°
2026-04-14 13:05 38.48991 -3.46548 37195 ft 495 kts 205°
2026-04-14 13:05 38.42489 -3.49638 37200 ft 496 kts 205°
2026-04-14 13:06 38.36072 -3.52681 37191 ft 494 kts 205°
2026-04-14 13:06 38.29611 -3.55743 36872 ft 498 kts 205°
2026-04-14 13:06 38.26381 -3.57270 36529 ft 492 kts 204°
2026-04-14 13:07 38.23186 -3.58778 36153 ft 488 kts 204°
2026-04-14 13:07 38.20016 -3.60273 35769 ft 484 kts 205°
2026-04-14 13:07 38.16839 -3.61657 35377 ft 483 kts 198°
2026-04-14 13:07 38.13544 -3.62510 35026 ft 482 kts 189°
2026-04-14 13:08 38.10209 -3.62726 34717 ft 479 kts 181°
2026-04-14 13:08 38.06886 -3.62723 34344 ft 476 kts 181°
2026-04-14 13:08 38.03576 -3.62689 33919 ft 474 kts 181°
2026-04-14 13:08 38.00294 -3.62662 33509 ft 471 kts 181°
2026-04-14 13:09 37.97033 -3.62656 33108 ft 467 kts 181°
2026-04-14 13:09 37.93790 -3.62667 32720 ft 464 kts 181°
2026-04-14 13:09 37.90572 -3.62689 32346 ft 461 kts 181°
2026-04-14 13:09 37.87377 -3.62716 31968 ft 458 kts 181°
2026-04-14 13:10 37.84196 -3.62744 31598 ft 455 kts 181°
2026-04-14 13:10 37.81038 -3.62772 31230 ft 453 kts 181°
2026-04-14 13:10 37.77897 -3.62798 30865 ft 450 kts 181°
2026-04-14 13:10 37.74774 -3.62823 30506 ft 448 kts 181°
2026-04-14 13:11 37.71666 -3.62848 30114 ft 446 kts 181°
2026-04-14 13:11 37.68572 -3.62873 29692 ft 443 kts 181°
2026-04-14 13:11 37.65501 -3.62897 29282 ft 440 kts 181°
2026-04-14 13:11 37.62461 -3.62921 29004 ft 434 kts 181°
2026-04-14 13:12 37.59452 -3.62944 28620 ft 431 kts 181°
2026-04-14 13:12 37.56467 -3.62967 28206 ft 428 kts 181°
2026-04-14 13:12 37.53498 -3.62990 27832 ft 425 kts 181°
2026-04-14 13:12 37.50544 -3.63013 27436 ft 423 kts 181°
2026-04-14 13:13 37.47615 -3.63035 27067 ft 420 kts 182°
2026-04-14 13:13 37.44701 -3.63053 26700 ft 418 kts 180°
2026-04-14 13:13 37.41854 -3.62467 26302 ft 416 kts 158°
2026-04-14 13:13 37.39341 -3.60763 25948 ft 407 kts 138°
2026-04-14 13:14 37.37360 -3.58309 25590 ft 395 kts 120°
2026-04-14 13:14 37.35988 -3.55380 25244 ft 386 kts 111°
2026-04-14 13:14 37.34816 -3.52408 24879 ft 384 kts 110°
2026-04-14 13:14 37.33660 -3.49392 24520 ft 383 kts 110°
2026-04-14 13:15 37.32497 -3.46377 24130 ft 383 kts 110°
2026-04-14 13:15 37.31325 -3.43381 23803 ft 381 kts 110°
2026-04-14 13:15 37.30147 -3.40407 23375 ft 380 kts 110°
2026-04-14 13:15 37.28967 -3.37449 22985 ft 378 kts 111°
2026-04-14 13:16 37.27789 -3.34508 22622 ft 376 kts 111°
2026-04-14 13:16 37.26620 -3.31592 22262 ft 374 kts 111°
2026-04-14 13:16 37.25452 -3.28685 21893 ft 371 kts 110°
2026-04-14 13:16 37.24299 -3.25800 21588 ft 368 kts 110°
2026-04-14 13:17 37.23168 -3.22940 21257 ft 365 kts 110°
2026-04-14 13:17 37.22045 -3.20089 20918 ft 363 kts 110°
2026-04-14 13:17 37.20928 -3.17254 20568 ft 362 kts 110°
2026-04-14 13:17 37.19817 -3.14434 20220 ft 360 kts 110°
2026-04-14 13:18 37.18707 -3.11625 19878 ft 359 kts 110°
2026-04-14 13:18 37.17601 -3.08827 19527 ft 358 kts 110°
2026-04-14 13:18 37.16496 -3.06036 19178 ft 357 kts 110°
2026-04-14 13:18 37.15390 -3.03244 18812 ft 358 kts 110°
2026-04-14 13:19 37.14284 -3.00456 18452 ft 357 kts 109°
2026-04-14 13:19 37.13178 -2.97671 18054 ft 357 kts 110°
2026-04-14 13:19 37.12073 -2.94892 17678 ft 355 kts 110°
2026-04-14 13:19 37.10976 -2.92136 17328 ft 353 kts 110°
2026-04-14 13:20 37.09880 -2.89384 16979 ft 351 kts 110°
2026-04-14 13:20 37.08801 -2.86677 16634 ft 346 kts 110°
2026-04-14 13:20 37.07732 -2.84003 16263 ft 340 kts 110°
2026-04-14 13:20 37.06753 -2.81556 15998 ft 331 kts 109°
2026-04-14 13:21 37.05735 -2.78990 15694 ft 327 kts 105°
2026-04-14 13:21 37.05164 -2.76324 15396 ft 310 kts 85°
2026-04-14 13:21 37.05195 -2.73674 15088 ft 302 kts 78°
2026-04-14 13:21 37.05336 -2.71066 14761 ft 299 kts 78°
2026-04-14 13:22 37.05490 -2.68477 14462 ft 297 kts 77°
2026-04-14 13:22 37.05643 -2.65908 14138 ft 295 kts 78°
2026-04-14 13:22 37.05786 -2.63354 13839 ft 294 kts 78°
2026-04-14 13:22 37.05925 -2.60804 13485 ft 293 kts 78°
2026-04-14 13:23 37.06056 -2.58268 13165 ft 291 kts 78°
2026-04-14 13:23 37.06184 -2.55753 12850 ft 288 kts 79°
2026-04-14 13:23 37.06308 -2.53253 12546 ft 287 kts 79°
2026-04-14 13:23 37.06431 -2.50775 12247 ft 285 kts 80°
2026-04-14 13:24 37.06552 -2.48307 11931 ft 283 kts 80°
2026-04-14 13:24 37.06789 -2.43432 11348 ft 279 kts 81°
2026-04-14 13:24 37.06905 -2.41015 11066 ft 278 kts 81°
2026-04-14 13:25 37.07020 -2.38578 10817 ft 282 kts 82°
2026-04-14 13:25 37.07136 -2.36109 10551 ft 285 kts 82°
2026-04-14 13:26 37.07469 -2.28830 9856 ft 275 kts 83°
2026-04-14 13:26 37.07578 -2.26450 9566 ft 273 kts 83°
2026-04-14 13:26 37.07686 -2.24077 9275 ft 272 kts 83°
2026-04-14 13:26 37.07793 -2.21714 8982 ft 271 kts 83°
2026-04-14 13:27 37.07899 -2.19363 8684 ft 270 kts 83°
2026-04-14 13:27 37.07949 -2.17021 8414 ft 271 kts 93°
2026-04-14 13:27 37.07310 -2.14820 8120 ft 279 kts 122°
2026-04-14 13:27 37.05847 -2.13188 7818 ft 284 kts 153°
2026-04-14 13:28 37.03927 -2.12706 7527 ft 285 kts 186°
2026-04-14 13:28 37.01965 -2.12923 7233 ft 284 kts 172°
2026-04-14 13:28 37.00148 -2.12036 6963 ft 281 kts 141°
2026-04-14 13:28 36.98844 -2.10318 6705 ft 275 kts 123°
2026-04-14 13:29 36.97746 -2.08371 6444 ft 273 kts 121°
2026-04-14 13:29 36.96675 -2.06406 6153 ft 273 kts 120°
2026-04-14 13:29 36.95793 -2.04337 5946 ft 268 kts 111°
2026-04-14 13:29 36.95020 -2.02235 5718 ft 265 kts 111°
2026-04-14 13:30 36.94042 -2.00290 5398 ft 269 kts 136°
2026-04-14 13:30 36.92380 -1.99268 4987 ft 268 kts 175°
2026-04-14 13:30 36.90652 -1.99643 4974 ft 246 kts 213°
2026-04-14 13:30 36.89533 -2.01118 4974 ft 227 kts 251°
2026-04-14 13:31 36.89398 -2.02958 4745 ft 207 kts 291°
2026-04-14 13:31 36.90080 -2.04433 4570 ft 189 kts 300°
2026-04-14 13:31 36.90501 -2.05937 4385 ft 178 kts 283°
2026-04-14 13:31 36.90643 -2.07427 4226 ft 171 kts 274°
2026-04-14 13:32 36.90647 -2.08906 3990 ft 169 kts 272°
2026-04-14 13:32 36.90576 -2.10361 3810 ft 169 kts 263°
2026-04-14 13:32 36.90366 -2.11792 3687 ft 168 kts 261°
2026-04-14 13:32 36.90154 -2.13249 3461 ft 172 kts 258°
2026-04-14 13:33 36.89874 -2.14680 3298 ft 168 kts 255°
2026-04-14 13:33 36.89545 -2.16072 3121 ft 165 kts 252°
2026-04-14 13:33 36.89211 -2.17424 2966 ft 160 kts 253°
2026-04-14 13:33 36.88892 -2.18736 2823 ft 162 kts 254°
2026-04-14 13:34 36.88223 -2.21441 2391 ft 164 kts 252°
2026-04-14 13:34 36.87891 -2.22795 2177 ft 162 kts 250°
2026-04-14 13:34 36.87564 -2.24115 1973 ft 153 kts 250°
2026-04-14 13:35 36.87275 -2.25294 1805 ft 127 kts 251°
2026-04-14 13:35 36.87006 -2.26350 1634 ft 128 kts 249°
2026-04-14 13:35 36.86737 -2.27454 1451 ft 131 kts 251°
2026-04-14 13:35 36.86471 -2.28550 1264 ft 133 kts 250°
2026-04-14 13:36 36.86199 -2.29666 1063 ft 136 kts 251°
2026-04-14 13:36 36.85928 -2.30765 911 ft 129 kts 252°
2026-04-14 13:36 36.85655 -2.31858 720 ft 135 kts 251°
2026-04-14 13:36 36.85366 -2.32998 525 ft 140 kts 250°
2026-04-14 13:37 36.85103 -2.34145 306 ft 137 kts 250°
2026-04-14 13:37 36.84823 -2.35272 118 ft 135 kts 250°
2026-04-14 13:37 36.84564 -2.36324 54 ft 108 kts 253°
2026-04-14 13:37 36.84407 -2.36962 54 ft 45 kts 253°
2026-04-14 13:38 36.84319 -2.37311 61 ft 39 kts 253°
2026-04-14 13:38 36.84247 -2.37609 61 ft 33 kts 253°
2026-04-14 13:38 36.84195 -2.37872 58 ft 29 kts 265°
2026-04-14 13:38 36.84212 -2.38099 61 ft 23 kts 279°
2026-04-14 13:39 36.84257 -2.38198 64 ft 11 kts
2026-04-14 13:39 36.84297 -2.38120 58 ft 11 kts 72°
2026-04-14 13:39 36.84322 -2.38017 65 ft 16 kts 74°
2026-04-14 13:39 36.84366 -2.37836 58 ft 27 kts 73°
2026-04-14 13:40 36.84406 -2.37676 65 ft 29 kts 73°
2026-04-14 13:40 36.84461 -2.37494 63 ft 15 kts 44°
2026-04-14 13:40 36.84529 -2.37483 63 ft 10 kts 46°
2026-04-14 13:40 36.84549 -2.37401 67 ft 10 kts 73°
2026-04-14 13:41 36.84585 -2.37340 66 ft 9 kts 353°
2026-04-14 13:41 36.84641 -2.37365 62 ft 5 kts 351°
2026-04-14 13:41 36.84649 -2.37345 67 ft 3 kts 112°
2026-04-14 13:41 36.84634 -2.37330 61 ft 1 kts 127°
2026-04-14 13:43 36.84632 -2.37332 61 ft 0 kts 118°